DMSP 5D-2 F13 DEB, 42272

Orbit data source: Space-Track

DMSP 5D-2 F13 DEB, 42272 is space debris in SSO originally from a launch on Fri, 24 Mar 1995 UTC launched from the Air Force Western Test Range (AFWTR). Debris objects in space refer to the collection of defunct objects orbiting the Earth. Examples of debris include non-operational satellites, rocket bodies, and fragments generated from explosions, collisions, or faulty payload assembly.

Loading next visibility...
Identifier
42272, 1995-015GN
Orbit
SSO
Country
Flag of USUS
Related business
Manufacturer
Unknown
Mission
Spacecraft
Bus & Motor
Unknown
Mass
Unknown
Launch date (UTC)
1995-03-24 (31 years ago)
Launch vehicle
Unknown
Launch site
Air Force Western Test Range (AFWTR)
Object type
Payload
Rocket body
Debris
Shape & HBR
Unknown shape, 0.1 m
Radar Cross Section
Small (<0.1 m²)

Expand to show TLE details & history
Last TLE update: 1 day ago

TLE from 1 day ago
0 DMSP 5D-2 F13 DEB
1 42272U 95015GN  26118.01349531  .00004407  00000-0  15915-2 0  9999
2 42272  98.8641 147.4069 0019904 353.0592   7.0313 14.33978194560505
Epoch: 2026-04-28T00:19Z
TLE epoch observation values (Epoch: 2026-04-28T00:19:25.994Z)
Latitude
-0.00006°
Longitude
-73.4463°
Altitude
767.253 km
Speed
7.478 km/s
True Right ascension
09h 49m 37s
True Declination
0° 00' 00"
Sunlit
Object was in daylight at epoch
Visualization orbit readout
Latitude
Unknown
Longitude
Unknown
Altitude
Unknown
Speed
Unknown
Apparent Right ascension
Unknown
Apparent Declination
Unknown
Sunlit
N/A
Visualization observer readout
Local Sidereal Time
13:07:06
Azimuth
Unknown
Elevation
Unknown
Doppler factor
Unknown
Orbital elements
Apogee altitude
789.85 km
Perigee altitude
761.373 km
Semi-major axis
7,153.749 km
Eccentricity
0.00199
Inclination
98.8641°
RAAN
147.4069°
Arg. of periapsis
353.0592°
True anomaly
7.05929°
Mean anomaly
7.0313°
Eccentric anomaly
7.04529°
Mean motion
3.58709 °/min
Orbital period
100.36 mins
BSTAR
0.0015915
Loading maneuver chart data...
Computing Atmospheric mass density...

Documentation

Showing up to 5 results
|